Погода в Кукелево

Россия / Хабаровский край     47°45′33″N   134°46′19″E
темп.,
°C
ветер,
м/с
пор.,
м/с
влажн.,
%
обл.,
%
осадки,
мм/ч
давл.,
гПа
погр.,
м
19 сентября, вс
вс1901:00+7з33635 0.0 101940
04:00+5юз33737 0.0 101928
07:00+5юз357792 0.0 101970
10:00+12зюз4651100 0.0 1019459
13:00+13з464499 0.0 10191179
16:00+16з45365 0.0 10172031
19:00+11юз48605 0.0 1018144
22:00+6юз511805 0.0 1020263
20 сентября, пн
пн2001:00+5юз512850 0.0 1021268
04:00+4юз48950 0.0 1021147
07:00+3юз38961 0.0 1021146
10:00+11зюз46585 0.0 1021460
13:00+17юз4439100 0.0 10201075
16:00+18юз443597 0.0 10181229
19:00+12юз2252100 0.0 101811
22:00+10ююв2258100 0.0 101715
21 сентября, вт
вт2101:00+9юв2265100 0.0 101615
04:00+9юв2261100 0.0 101519
07:00+11юв2250100 0.0 101542
10:00+10в2391100 0.5 1014104
13:00+12юв2594100 0.4 1013209
16:00+11в3496100 1.2 1012147
19:00+11в3696100 0.4 1011158
22:00+11всв3695100 0.4 1010156
22 сентября, ср
ср2201:00+11всв4897100 1.5 1009247
04:00+11всв51197100 4.5 1008327
07:00+11св51197100 2.5 1008330
10:00+9св51196100 5.3 1009360
13:00+11св71193100 2.0 1009393
16:00+12св5995100 2.1 1010455
19:00+11св61193100 0.0 1012422
22:00+11св61291100 0.0 1013396
23 сентября, чт
чт2301:00+11св61289100 0.0 1015354
04:00+11св61187100 0.0 1016341
07:00+11св61180100 0.0 1017357
10:00+11св51073100 0.0 1019416
13:00+12св5869100 0.0 1020488
16:00+14всв4769100 0.0 1020509
19:00+12всв357491 0.0 1021117
22:00+9всв338751 0.0 102239